Simultaneous Nadir Overpasses (SNOs) Predictions

Prediction of SNOs between FY3D and AQUA Satellite Orbit:

Table of predicted SNOs for the next 14.0 days since TLE Epoch: 12/12/2020
Index Date (FY3D) Time (FY3D) Lat,Lon (FY3D) SZA (FY3D ) Date (AQUA) Time (AQUA) Lat,Lon (AQUA) SZA (AQUA ) Distance(km) Time Diff (sec)
1 12/12/2020 09:54:22 46.01,-116.16 144.41 12/12/2020 09:54:17 46.02,-116.16 144.41 1.53 5
2 12/12/2020 10:39:33 -65.04, 62.65 50.51 12/12/2020 10:38:19 -65.12, 62.30 50.33 18.43 74
3 12/15/2020 02:10:40 46.15, -0.18 144.62 12/15/2020 02:10:42 46.17, -0.23 144.64 4.09 2
4 12/15/2020 02:58:48 -55.27, 171.38 42.08 12/15/2020 02:57:37 -55.27, 171.39 41.94 0.75 71
5 12/17/2020 18:26:54 46.57, 115.91 144.60 12/17/2020 18:27:03 46.59, 115.82 144.63 7.79 9
6 12/17/2020 19:15:14 -55.00, -72.84 41.63 12/17/2020 19:14:10 -54.99, -72.87 41.49 1.67 64
7 12/20/2020 10:43:09 46.93,-128.02 144.58 12/20/2020 10:43:25 46.95,-128.16 144.62 11.40 16
8 12/20/2020 11:32:05 -53.31, 42.18 40.11 12/20/2020 11:31:07 -53.30, 42.18 39.98 0.61 58
9 12/23/2020 02:59:23 47.35, -11.92 144.47 12/23/2020 02:59:46 47.37, -12.12 144.53 15.16 23
10 12/23/2020 03:48:54 -51.72, 157.32 38.73 12/23/2020 03:48:02 -51.72, 157.32 38.62 0.12 52
11 12/25/2020 19:15:37 47.71, 104.15 144.36 12/25/2020 19:16:06 47.77, 103.92 144.39 18.56 29



Historial Predications of SNOs between FY3D and AQUA
